[[{"header":{"parameterUnit":"m.s-1","parameterCategory":1,"la1":30.2991,"la2":30.254,"lo1":-89.0895,"lo2":-89.0444,"dy":0.0017,"dx":0.0017,"nx":28,"ny":28,"refTime":"2025-05-20T09:00:00:Z","depth":0,"parameterNumber":2,"parameterNumberName":"U-component_of_WINDS"},"data":[0,0,0,0,0,0,0,0,0,0,0,0,0,0,0,0,0,0,0,0,0,0,0,0,0,0,0,0,0,0,0,0,0,0,0,0,0,0,0,0,0,0,0,0,0,0,0,0,0,0,0,0,0,0,0,0,0,0,3.0133,3.0135,0,3.0295,3.0297,3.0299,3.0316,3.0315,3.0313,3.0311,3.0479,3.0485,3.0491,0,0,0,0,0,0,0,0,0,0,0,0,0,2.9841,2.9846,3.0133,3.0135,3.0137,3.0295,3.0297,3.0299,3.0317,3.0315,3.0313,3.0311,3.0478,3.0485,3.0492,0,0,0,0,0,0,0,0,0,0,0,0,0,2.9982,2.9848,3.0132,3.0165,3.0169,3.0295,3.0297,3.03,3.0317,3.0315,3.0312,3.031,3.0475,3.0484,3.0493,3.0598,0,0,3.052,3.0524,0,0,0,0,0,0,0,0,2.9974,2.9992,3.0158,3.0163,3.0168,3.0283,3.0256,3.04,3.0318,3.0261,3.0311,3.0309,3.0416,3.043,3.0466,3.0606,3.0613,3.0521,3.0527,3.0531,3.0533,0,0,0,0,0,0,0,2.9964,2.9985,3.0197,3.016,3.0166,3.0172,3.0189,3.0283,3.0351,3.0266,3.0267,3.0286,3.0418,3.0457,3.047,3.0616,3.0521,3.0529,3.0534,3.0538,3.0852,3.0855,0,0,0,0,0,0,2.9948,2.9977,3.0192,3.0202,3.0063,3.0179,3.0198,3.0249,3.035,3.0363,3.0288,3.0286,3.0443,3.0459,3.0476,3.0607,3.053,3.0539,3.0544,3.0849,3.0853,3.0856,0,0,0,0,0,0,2.9941,2.9967,3.0185,3.009,3.0118,3.0187,3.0243,3.0253,3.0292,3.0367,3.0379,3.0315,3.0442,3.0463,3.0568,3.0613,3.0543,3.0551,3.0846,3.085,3.0854,3.0869,0,0,0,0,0,0,2.9933,2.9964,3.0004,3.0091,3.0123,3.0274,3.0246,3.0258,3.0307,3.0306,3.0395,3.0407,3.0441,3.0554,3.0577,3.0624,3.0558,3.0842,3.0848,3.0853,3.0864,3.0873,3.088,0,0,0,0,0,2.9922,3.0002,3.0006,3.0032,3.0175,3.0276,3.0295,3.0332,3.031,3.0352,3.04,3.0405,3.0604,3.0565,3.059,3.0641,3.0839,3.0846,3.0853,3.0861,3.0871,3.088,0,0,0,0,0,0,2.9919,3.0014,3.002,3.0129,3.0195,3.0279,3.0332,3.0342,3.0415,3.0411,3.0454,3.0474,3.0577,3.062,3.0574,3.0749,3.072,3.0732,3.0717,3.0728,3.0736,3.0723,3.0566,0,0,0,0,0,2.993,3.0004,3.0084,3.0173,3.0205,3.0263,3.0309,3.0332,3.0401,3.0429,3.0485,3.0553,3.0632,3.0682,3.0758,3.0871,3.0891,3.0918,3.0926,3.0932,3.0942,3.1006,3.102,3.0878,3.0878,3.0878,0,0,2.9956,3.0017,3.0061,3.0174,3.0227,3.0304,3.0286,3.0368,3.0425,3.0442,3.0544,3.0588,3.0667,3.0776,3.0827,3.0814,3.0986,3.0941,3.0945,3.0952,3.1015,3.1028,3.104,3.0882,3.0881,3.0881,0,0,3.0041,3.0094,3.0175,3.0229,3.031,3.0348,3.0368,3.0452,3.0481,3.0584,3.0599,3.0669,3.0802,3.0858,3.0904,3.1013,3.102,3.1036,3.1078,3.114,3.1151,3.1161,3.1201,3.1214,3.1046,3.1046,3.1046,0,3.0062,3.0178,3.0215,3.0297,3.0347,3.0365,3.0448,3.0499,3.0601,3.0635,3.062,3.0789,3.0843,3.0967,3.0993,3.103,3.1054,3.1026,3.1146,3.1157,3.1167,3.1205,3.122,3.1048,3.1047,3.1047,3.1047,0,3.02,3.028,3.0336,3.0434,3.049,3.0571,3.0623,3.0675,3.0694,3.0734,3.084,3.0906,3.0996,3.1028,3.1046,3.1154,3.1144,3.1137,3.1108,3.1181,3.1218,3.1233,3.105,3.1049,3.1049,3.1048,0,0,3.0286,3.0405,3.0425,3.0471,3.0562,3.0625,3.0709,3.0797,3.0841,3.0912,3.0983,3.1097,3.1091,3.1143,3.1169,3.1223,3.1306,3.121,3.1212,3.1226,3.1431,3.1435,3.1452,3.1312,3.1315,3.1317,3.1424,0,3.0383,3.0531,3.0568,3.0695,3.077,3.0789,3.0862,3.0927,3.0967,3.1038,3.1082,3.1162,3.1148,3.118,3.1235,3.1284,3.1348,3.1277,3.138,3.1383,3.1359,3.1471,3.1476,3.1574,3.1439,3.1441,3.1443,0,3.0514,3.0587,3.0721,3.0805,3.0838,3.0902,3.0987,3.1054,3.1128,3.1154,3.1213,3.1233,3.1322,3.1289,3.1413,3.1364,3.1409,3.144,3.1444,3.1455,3.1417,3.1485,3.1606,3.1621,3.1466,3.1464,3.1462,0,3.0564,3.0696,3.0794,3.0832,3.0932,3.0977,3.1021,3.1093,3.1144,3.1218,3.1252,3.1336,3.1382,3.1447,3.149,3.1462,3.1611,3.1581,3.1636,3.1635,3.1666,3.1663,3.1795,3.1694,3.1694,3.1693,3.1693,0,3.0668,3.0749,3.0818,3.0878,3.0971,3.1013,3.1104,3.1148,3.1213,3.1283,3.1305,3.137,3.1424,3.1497,3.1531,3.1629,3.165,3.1673,3.1682,3.1672,3.1669,3.1701,3.1696,3.1697,3.1696,3.1696,3.1695,0,3.0739,3.0788,3.0896,3.0982,3.1006,3.107,3.1144,3.1204,3.1245,3.1333,3.1357,3.1422,3.1509,3.1559,3.1669,3.1692,3.1801,3.1806,3.1776,3.1779,3.1831,3.1826,3.1989,3.2013,3.1895,3.1896,3.1897,0,3.0802,3.0865,3.0958,3.1006,3.105,3.1128,3.1181,3.1226,3.128,3.137,3.142,3.1508,3.1581,3.172,3.1778,3.1862,3.187,3.1921,3.1882,3.1871,3.1871,3.1867,3.1874,3.1928,3.1929,3.193,3.193,0,3.0908,3.093,3.1004,3.1088,3.115,3.1219,3.1286,3.1325,3.1382,3.1441,3.1531,3.1588,3.17,3.1788,3.1878,3.1924,3.1937,3.1942,3.1959,3.195,3.193,3.1942,3.1794,3.1938,3.1937,3.1937,3.1936,3.1936,3.0978,3.1035,3.111,3.1193,3.1249,3.1312,3.1373,3.1422,3.1497,3.1592,3.1614,3.1709,3.1784,3.1905,3.1954,3.2029,3.202,3.2044,3.2051,3.2056,3.2058,3.1918,3.2045,3.2045,3.2045,3.2045,3.2045,0,3.1086,3.1135,3.1211,3.1305,3.1371,3.1378,3.1453,3.1508,3.1591,3.1659,3.1731,3.1834,3.192,3.1985,3.2073,3.2121,3.213,3.2143,3.214,3.2151,3.2061,3.2038,3.2135,3.2135,3.2135,3.2135,3.2135,3.2135,3.115,3.1248,3.1279,3.1406,3.1455,3.1547,3.159,3.1649,3.1704,3.1818,3.189,3.1932,3.1999,3.2093,3.2172,3.2189,3.2221,3.2234,3.2252,3.2167,3.2157,3.2148,3.2126,3.224,3.224,3.2335,3.2336,3.2337]},{"header":{"parameterUnit":"m.s-1","parameterCategory":1,"la1":30.2991,"la2":30.254,"lo1":-89.0895,"lo2":-89.0444,"dy":0.0017,"dx":0.0017,"nx":28,"ny":28,"refTime":"2025-05-20T09:00:00:Z","depth":0,"parameterNumber":3,"parameterNumberName":"V-component_of_WINDS"},"data":[0,0,0,0,0,0,0,0,0,0,0,0,0,0,0,0,0,0,0,0,0,0,0,0,0,0,0,0,0,0,0,0,0,0,0,0,0,0,0,0,0,0,0,0,0,0,0,0,0,0,0,0,0,0,0,0,0,0,1.4459,1.4459,0,1.4447,1.4447,1.4447,1.4372,1.437,1.4369,1.4367,1.4357,1.4359,1.436,0,0,0,0,0,0,0,0,0,0,0,0,0,1.442,1.4421,1.4459,1.4459,1.4459,1.4447,1.4447,1.4447,1.4372,1.437,1.4368,1.4366,1.4357,1.4358,1.436,0,0,0,0,0,0,0,0,0,0,0,0,0,1.4425,1.4421,1.4459,1.442,1.4417,1.4447,1.4447,1.4447,1.4373,1.437,1.4367,1.4365,1.4356,1.4358,1.436,1.4428,0,0,1.4367,1.4368,0,0,0,0,0,0,0,0,1.4425,1.4427,1.4426,1.4423,1.4419,1.4408,1.4429,1.4441,1.4374,1.439,1.4367,1.4364,1.4377,1.4377,1.4381,1.4428,1.4427,1.4367,1.4369,1.4369,1.437,0,0,0,0,0,0,0,1.4425,1.4427,1.4454,1.4426,1.4422,1.4404,1.4402,1.4431,1.4399,1.4388,1.4383,1.4382,1.4374,1.4379,1.438,1.4427,1.4367,1.4369,1.437,1.4371,1.4528,1.4531,0,0,0,0,0,0,1.443,1.4427,1.4455,1.4454,1.4415,1.4407,1.4404,1.4415,1.4398,1.4393,1.4384,1.4379,1.4376,1.4378,1.4379,1.4457,1.4369,1.4371,1.4373,1.4525,1.4529,1.4532,0,0,0,0,0,0,1.4429,1.4433,1.4455,1.4439,1.4441,1.4411,1.4422,1.4416,1.442,1.4395,1.4389,1.4395,1.4374,1.4376,1.4416,1.4455,1.4372,1.4374,1.4522,1.4526,1.453,1.4613,0,0,0,0,0,0,1.4428,1.4433,1.4458,1.444,1.4442,1.4492,1.4425,1.4417,1.4424,1.4416,1.4404,1.4399,1.4372,1.4413,1.4418,1.4457,1.4376,1.4518,1.4524,1.4529,1.4606,1.4619,1.463,0,0,0,0,0,1.4427,1.4483,1.446,1.4464,1.4472,1.4494,1.4495,1.4463,1.4427,1.4452,1.4436,1.4399,1.445,1.4418,1.4423,1.4463,1.4515,1.4522,1.4528,1.4601,1.4617,1.463,0,0,0,0,0,0,1.4507,1.448,1.4454,1.4505,1.4503,1.4482,1.4512,1.4481,1.4489,1.4481,1.4442,1.4439,1.4485,1.4478,1.4442,1.4527,1.4476,1.4484,1.453,1.4545,1.4556,1.4557,1.4378,0,0,0,0,0,1.4531,1.455,1.4525,1.4573,1.4573,1.4543,1.4551,1.4526,1.4522,1.4521,1.4508,1.4506,1.4522,1.4533,1.4546,1.4605,1.4601,1.4634,1.4646,1.4656,1.4664,1.4694,1.4708,1.4553,1.4553,1.4553,0,0,1.458,1.4567,1.4582,1.4589,1.4584,1.4605,1.4543,1.4568,1.4584,1.4525,1.4562,1.4552,1.4547,1.4597,1.4618,1.4592,1.4706,1.4665,1.4673,1.4675,1.4702,1.4717,1.473,1.4557,1.4556,1.4556,0,0,1.468,1.4672,1.471,1.4706,1.4699,1.4679,1.4688,1.4672,1.4663,1.4698,1.4654,1.4673,1.4701,1.4699,1.4701,1.48,1.4766,1.4805,1.4868,1.4898,1.491,1.4921,1.4956,1.4969,1.4813,1.4813,1.4813,0,1.4742,1.4771,1.4734,1.4762,1.4767,1.4713,1.4752,1.475,1.4748,1.4753,1.4723,1.4756,1.4749,1.4797,1.4821,1.4825,1.4835,1.4807,1.4911,1.4921,1.4931,1.4964,1.4977,1.4817,1.4817,1.4816,1.4816,0,1.4848,1.4869,1.4901,1.4899,1.4907,1.494,1.4909,1.4921,1.4895,1.4878,1.4915,1.4905,1.4914,1.4924,1.49,1.4968,1.4952,1.4918,1.4867,1.4951,1.4981,1.4993,1.4824,1.4823,1.4821,1.482,0,0,1.4999,1.4974,1.4987,1.4985,1.4972,1.4988,1.5019,1.5027,1.5039,1.5039,1.5064,1.5088,1.5056,1.5059,1.5034,1.506,1.5138,1.5022,1.5021,1.5044,1.5213,1.5239,1.5254,1.5116,1.5118,1.512,1.5213,0,1.5094,1.5144,1.5111,1.5167,1.5186,1.5136,1.5163,1.5158,1.5143,1.5158,1.5141,1.5159,1.5115,1.5116,1.514,1.5124,1.5171,1.5116,1.5139,1.514,1.5141,1.527,1.5297,1.5386,1.5225,1.5227,1.5228,0,1.5212,1.5216,1.5274,1.5256,1.5263,1.5288,1.5292,1.5307,1.5301,1.5288,1.5291,1.5259,1.5288,1.5238,1.5278,1.5241,1.5248,1.5242,1.5244,1.5245,1.5189,1.5274,1.5414,1.5427,1.5246,1.5245,1.5244,0,1.5315,1.5335,1.5372,1.5372,1.5353,1.5371,1.5365,1.5356,1.5363,1.5367,1.5371,1.5379,1.5383,1.5391,1.5362,1.5328,1.5406,1.5353,1.5396,1.5397,1.5415,1.5415,1.5558,1.542,1.542,1.542,1.542,0,1.5425,1.5463,1.5418,1.5441,1.5481,1.5443,1.5484,1.5472,1.5464,1.5484,1.5441,1.5461,1.5421,1.5437,1.5415,1.5452,1.5454,1.5445,1.5439,1.5449,1.545,1.5453,1.5446,1.5423,1.5423,1.5422,1.5421,0,1.5548,1.5519,1.5556,1.5535,1.553,1.5561,1.5543,1.5563,1.5544,1.557,1.5574,1.5545,1.5562,1.5533,1.5547,1.5532,1.5583,1.5567,1.5584,1.558,1.5625,1.5621,1.5776,1.5794,1.5644,1.5646,1.5647,0,1.562,1.5647,1.5628,1.5638,1.5633,1.5649,1.5655,1.5619,1.5627,1.5622,1.5643,1.5656,1.5664,1.5692,1.5673,1.5683,1.5667,1.572,1.5668,1.5677,1.5668,1.5667,1.5669,1.5731,1.5733,1.5735,1.5736,0,1.575,1.5735,1.5745,1.575,1.5758,1.5761,1.5761,1.5771,1.5733,1.5745,1.576,1.5766,1.5779,1.5792,1.5797,1.579,1.5757,1.5752,1.5763,1.5774,1.5783,1.5778,1.5614,1.5749,1.5748,1.5747,1.5746,1.5745,1.5849,1.5871,1.5861,1.5873,1.5869,1.5869,1.5887,1.587,1.5882,1.5889,1.5867,1.5888,1.5881,1.5884,1.5881,1.5897,1.5873,1.5889,1.5892,1.5897,1.5904,1.578,1.5897,1.5897,1.5897,1.5896,1.5896,0,1.5978,1.5968,1.598,1.598,1.599,1.5957,1.5954,1.5965,1.5984,1.5979,1.5988,1.6005,1.6018,1.5999,1.6008,1.6025,1.601,1.6028,1.6027,1.6026,1.5925,1.5914,1.604,1.604,1.604,1.604,1.604,1.604,1.6046,1.608,1.6063,1.6095,1.6085,1.6104,1.6106,1.6106,1.6102,1.6124,1.6133,1.6121,1.6111,1.6119,1.6129,1.6123,1.6128,1.6153,1.6142,1.6047,1.6033,1.602,1.601,1.6154,1.6154,1.6242,1.6242,1.6243]}]]